Location: ??
(34.9170°N, 135.5016°E)
Time: 17:04:56
(UTC+00:00)

SR - Visible Passes

Search period start: 26 February 2021 00:00
Search period end: 08 March 2021 00:00
Orbit: 573 x 882 km, 66.7° (Epoch: 25 February)

Date Brightness Start Highest point End Pass type
(mag) Time Alt. Az. Time Alt. Az. Time Alt. Az.
26 Feb ? 09:56:51 10° SSE 10:00:33 22° ESE 10:00:33 22° ESE visible
26 Feb ? 11:37:40 10° SW 11:40:07 26° WSW 11:40:07 26° WSW visible
26 Feb ? 18:41:32 10° NNE 18:44:01 13° NE 18:46:29 10° ENE visible
26 Feb ? 20:21:09 10° NNW 20:27:08 75° ENE 20:32:53 10° SSE visible
27 Feb ? 10:47:30 10° SSW 10:52:26 82° WNW 10:54:04 46° NNE visible
27 Feb ? 19:31:40 10° NNW 19:37:12 39° ENE 19:42:35 10° SE visible
28 Feb ? 09:58:07 10° S 10:02:48 46° ESE 10:07:56 10° NE visible
28 Feb ? 11:41:13 10° W 11:45:10 22° NW 11:47:41 16° NNW visible
28 Feb ? 18:42:36 10° N 18:47:04 21° NE 18:51:27 10° E visible
28 Feb ? 20:23:46 10° NW 20:29:35 59° WSW 20:35:11 10° S visible
01 Mar ? 09:09:44 10° SSE 09:13:23 21° ESE 09:17:16 10° ENE visible
01 Mar ? 10:50:17 10° SW 10:55:02 42° WNW 11:00:14 10° NNE visible
01 Mar ? 17:54:35 10° NNE 17:56:41 12° NE 17:58:47 10° ENE visible
01 Mar ? 19:33:55 10° NNW 19:39:52 71° ENE 19:45:35 10° SE visible
02 Mar ? 10:00:12 10° SSW 10:05:10 88° WNW 10:10:40 10° NNE visible
02 Mar ? 11:45:55 10° WNW 11:48:10 13° NW 11:50:30 10° NNW visible
02 Mar ? 18:45:32 15° N 18:49:55 37° NE 18:55:13 10° ESE visible
02 Mar ? 20:26:47 10° NW 20:31:54 31° WSW 20:36:49 10° SSW visible
03 Mar ? 10:53:45 10° WSW 10:57:50 23° NW 11:02:12 10° N visible
03 Mar ? 17:59:11 20° NE 17:59:45 20° NE 18:03:58 10° E visible
03 Mar ? 19:38:45 24° NW 19:42:21 64° WSW 19:47:57 10° SSE visible
04 Mar ? 10:02:54 10° SW 10:07:45 45° WNW 10:13:02 10° NNE visible
04 Mar ? 18:52:44 66° ENE 18:52:44 66° ENE 18:58:16 10° SE visible
04 Mar ? 20:32:19 14° W 20:34:02 16° WSW 20:37:21 10° SW visible
05 Mar ? 09:12:53 10° SSW 09:17:53 86° ESE 09:23:24 10° NNE visible
05 Mar ? 10:58:14 10° WNW 11:00:49 14° NW 11:03:30 10° NNW visible
05 Mar ? 18:06:49 15° ESE 18:06:49 15° ESE 18:07:49 10° ESE visible
05 Mar ? 19:46:23 28° SW 19:46:23 28° SW 19:49:40 10° S visible
06 Mar ? 10:06:17 10° WSW 10:10:30 25° NW 10:15:03 10° N visible
06 Mar ? 19:00:22 12° SSE 19:00:22 12° SSE 19:00:43 10° SSE visible
07 Mar ? 09:15:32 10° SW 09:20:26 49° WNW 09:25:48 10° NNE visible
